Change the Weather History Date:

Tuesday, November 25, 2014

  Actual Average Record
Temperature  
Mean Temperature 57 °F 44 °F  
Max Temperature 67 °F 51 °F 73 °F (1979)
Min Temperature 46 °F 36 °F 19 °F (1938)
Degree Days  
Heating Degree Days 8 21  
Month to date heating degree days 487 434  
Since 1 July heating degree days 695 755  
Cooling Degree Days 0 0  
Month to date cooling degree days 0 0  
Year to date cooling degree days 1175 1191  
Growing Degree Days 5 (Base 50)    
Moisture  
Dew Point 36 °F    
Average Humidity 53    
Maximum Humidity 73    
Minimum Humidity 32    
Precipitation  
Precipitation 0.00 in 0.12 in 2.74 in (1950)
Month to date precipitation 3.02 3.00  
Year to date precipitation 43.31 41.79  
Snow  
Snow 0.00 in 0.00 in 1.20 in (1983)
Month to date snowfall T 0.2  
Since 1 July snowfall T 0.2  
Snow Depth 0.00 in    
Sea Level Pressure  
Sea Level Pressure 29.97 in    
Wind  
Wind Speed 10 mph (WSW)    
Max Wind Speed 20 mph    
Max Gust Speed 25 mph    
Visibility 10 miles    
Events      
T = Trace of Precipitation, MM = Missing Value Source: NWS Daily Summary

Daily Weather History Graph

Daily Weather History Graph

Search for Another Location

Airport or City:

Trip Planner

Search our weather history database for the weather conditions in past years. The results will help you decide how hot, cold, wet, or windy it might be!

Date:

Astronomy

Nov. 25, 2014 Rise Set
Actual Time 6:54 AM EST 4:32 PM EST
Civil Twilight 6:24 AM EST 5:02 PM EST
Nautical Twilight 5:51 AM EST 5:35 PM EST
Astronomical Twilight 5:18 AM EST 6:08 PM EST
Moon 9:37 AM EST (11/25) 7:54 PM EST (11/25)
Length of Visible Light 10h 37m
Length of Day
9h 37m
Waxing Crescent, 12% of the Moon is Illuminated
Nov 25
Waxing Crescent
Nov 29
First Quarter
Dec 6
Full
Dec 14
Last Quarter
Dec 21
New

Hourly Weather History & Observations

Time (EST) Temp. Dew Point Humidity Pressure Visibility Wind Dir Wind Speed Gust Speed Precip Events Conditions
12:51 AM 66.9 °F 56.1 °F 68% 29.74 in 10.0 mi SW 18.4 mph 26.5 mph N/A   Mostly Cloudy
1:51 AM 66.0 °F 56.1 °F 70% 29.75 in 10.0 mi WSW 12.7 mph - N/A   Overcast
2:51 AM 64.4 °F 55.2 °F 72% 29.78 in 10.0 mi SW 9.2 mph - N/A   Mostly Cloudy
3:51 AM 62.6 °F 51.8 °F 68% 29.80 in 10.0 mi WSW 8.1 mph 20.7 mph N/A   Overcast
4:51 AM 61.7 °F 48.9 °F 63% 29.84 in 10.0 mi WSW 10.4 mph - N/A   Mostly Cloudy
5:51 AM 61.7 °F 43.0 °F 50% 29.87 in 10.0 mi WSW 9.2 mph - N/A   Mostly Cloudy
6:51 AM 62.1 °F 43.0 °F 50% 29.90 in 10.0 mi West 10.4 mph - N/A   Mostly Cloudy
7:51 AM 57.9 °F 34.0 °F 41% 29.94 in 10.0 mi West 15.0 mph - N/A   Overcast
8:51 AM 57.0 °F 30.0 °F 36% 29.96 in 10.0 mi West 13.8 mph - N/A   Overcast
9:51 AM 55.9 °F 28.0 °F 34% 30.00 in 10.0 mi NW 12.7 mph - N/A   Overcast
10:51 AM 55.0 °F 26.1 °F 33% 30.01 in 10.0 mi West 15.0 mph - N/A   Overcast
11:51 AM 55.0 °F 27.0 °F 34% 30.00 in 10.0 mi West 16.1 mph 20.7 mph N/A   Overcast
12:15 PM 55.4 °F 26.6 °F 33% 29.99 in 10.0 mi West 11.5 mph - N/A   Overcast
12:51 PM 54.0 °F 27.0 °F 35% 30.01 in 10.0 mi West 12.7 mph 25.3 mph N/A   Overcast
1:44 PM 53.6 °F 28.4 °F 38% 29.99 in 10.0 mi West 10.4 mph - N/A   Overcast
1:51 PM 54.0 °F 28.0 °F 37% 30.00 in 10.0 mi WSW 11.5 mph - N/A   Overcast
2:51 PM 54.0 °F 28.9 °F 38% 29.99 in 10.0 mi West 9.2 mph - N/A   Mostly Cloudy
3:51 PM 53.1 °F 28.0 °F 38% 30.01 in 10.0 mi WSW 11.5 mph - N/A   Mostly Cloudy
4:51 PM 51.1 °F 28.9 °F 43% 30.03 in 10.0 mi WSW 8.1 mph - N/A   Mostly Cloudy
5:51 PM 48.9 °F 30.9 °F 50% 30.04 in 10.0 mi SW 6.9 mph - N/A   Mostly Cloudy
6:51 PM 50.0 °F 30.9 °F 48% 30.07 in 10.0 mi SW 9.2 mph - N/A   Mostly Cloudy
7:51 PM 50.0 °F 30.9 °F 48% 30.09 in 10.0 mi WSW 9.2 mph - N/A   Mostly Cloudy
8:51 PM 48.9 °F 30.9 °F 50% 30.12 in 10.0 mi WSW 6.9 mph - N/A   Overcast
9:51 PM 48.9 °F 30.9 °F 50% 30.13 in 10.0 mi WSW 4.6 mph - N/A   Overcast
10:51 PM 48.9 °F 30.9 °F 50% 30.16 in 10.0 mi West 4.6 mph - N/A   Overcast
11:51 PM 46.9 °F 32.0 °F 56% 30.16 in 10.0 mi WSW 4.6 mph - N/A   Overcast